Preview of NWS' New Version of Forecast
This preview is not operational and should not be used for support decisions.

Regional Weather Roundup (RWR)

Issued by National Weather Service (NWS)

                            
000
ASUS43 KMKX 252111
RWRWI 

WISCONSIN REGIONAL WEATHER ROUNDUP
NATIONAL WEATHER SERVICE MILWAUKEE/SULLIVAN WI
400 PM CDT SUN AUG 25 2019

NOTE: "FAIR" INDICATES FEW OR NO CLOUDS BELOW 12,000 FEET WITH NO
SIGNIFICANT WEATHER AND/OR OBSTRUCTIONS TO VISIBILITY.

WIZ001-002-006>008-014>016-023>028-252200-
NORTHWEST WISCONSIN
  
CITY           SKY/WX    TMP DP  RH WIND       PRES   REMARKS
SUPERIOR ARPT  CLOUDY    73  54  52 S9        29.99S                  
ASHLAND        PTSUNNY   76  53  44 S14G21    30.02F                  
HAYWARD        FAIR      69  52  54 S9G22     30.03F                  
SIREN          CLOUDY    71  52  51 S10       30.00F                  
CUMBERLAND     CLOUDY    68  52  56 S15       30.02F                  
RICE LAKE      NOT AVBL                                               
CHETEK         FAIR      69  55  60 SE13G21   30.03F                  
LADYSMITH      PTSUNNY   69  53  55 S8        30.06F                  
EAU CLAIRE     CLOUDY    72  53  51 SE15G22   30.02F                  
MENOMONIE      FAIR      68  53  59 SE12G17   30.02F                  
NEW RICHMOND   CLOUDY    70  52  53 SE8       30.00F                  
OSCEOLA        CLOUDY    70  55  59 SE13      30.01F                  
$$
 
WIZ003>005-009-010-017-018-252200-
NORTH CENTRAL WISCONSIN
  
CITY           SKY/WX    TMP DP  RH WIND       PRES   REMARKS
MANITOWISH WTR PTSUNNY   70  55  59 SE10      30.06F                  
ARBOR VITAE    PTSUNNY   72  58  61 S12G17    30.06F                  
WOODRUFF       PTSUNNY   72  58  61 S12G17    30.06F                  
RHINELANDER    PTSUNNY   69  53  56 SE10      30.08F                  
EAGLE RIVER    FAIR      70  51  51 S9G16     30.07F                  
LAND O LAKES   NOT AVBL                                               
PHILLIPS       FAIR      69  54  58 S13       30.05F                  
TOMAHAWK       FAIR      73  55  54 SE5       30.07F                  
MEDFORD        PTSUNNY   67  53  61 SE12      30.06F                  
MERRILL        FAIR      71  55  55 S10       30.07F                  
$$
 
WIZ029-030-035-036-043>047-252200-
CENTRAL WISCONSIN
  
CITY           SKY/WX    TMP DP  RH WIND       PRES   REMARKS
WAUSAU         FAIR      71  53  52 SE14G21   30.05F                  
MOSINEE        PTSUNNY   70  55  60 SE9       30.08F                  
MARSHFIELD     FAIR      69  55  60 SE8       30.05F                  
STEVENS POINT  PTSUNNY   69  55  59 SE9       30.06F                  
WAUPACA        FAIR      76  53  44 E10       30.07F                  
WAUTOMA        PTSUNNY   74  57  55 E8        30.05F                  
WISC RAPIDS    FAIR      72  54  53 SE8       30.05F                  
CAMP DOUGLAS   NOT AVBL                                               
$$
 
WIZ011>013-019>022-031-037>040-048>050-252200-
NORTHEAST WISCONSIN
  
CITY           SKY/WX    TMP DP  RH WIND       PRES   REMARKS
ANTIGO         PTSUNNY   69  55  59 S14       30.10S                  
SHAWANO        FAIR      73  54  51 SE12      30.09F                  
OCONTO         FAIR      71  56  58 SE12      30.10F                  
STURGEON BAY   FAIR      70  57  63 S12       30.12F                  
GREEN BAY      FAIR      74  56  53 SE13G24   30.10F                  
MANITOWOC      FAIR      70  59  68 SE9       30.11F                  
APPLETON       PTSUNNY   72  54  53 SE10      30.08F                  
CLINTONVILLE   FAIR      72  53  50 SE10      30.08F                  
OSHKOSH        FAIR      73  55  53 SE12      30.06F                  
$$
 
WIZ032>034-041-042-053>061-252200-
SOUTHWEST WISCONSIN
  
CITY           SKY/WX    TMP DP  RH WIND       PRES   REMARKS
LA CROSSE      FAIR      72  58  61 SE6       30.01F                  
SPARTA         FAIR      68  58  71 SE3       30.03F                  
VIROQUA        PTSUNNY   68  61  78 SE13      30.03F                  
BOSCOBEL       FAIR      74  58  57 E6        30.01F                  
PRAIRIE DU CHI PTSUNNY   72  56  57 SE7       30.00F                  
PLATTEVILLE    PTSUNNY   69  60  73 SE12      30.03S                  
$$

WIZ056-057-062-063-064-067-068-252200-
SOUTH CENTRAL WISCONSIN
  
CITY           SKY/WX    TMP DP  RH WIND       PRES   REMARKS
REEDSBURG      PTSUNNY   71  57  61 SE6       30.03F                  
BARABOO/DELLS  FAIR      72  56  56 SE9       30.04F                  
LONE ROCK      CLOUDY    73  56  54 SE10      30.02F                  
MINERAL POINT  CLOUDY    72  61  68 SE8       30.03F                  
MADISON        CLOUDY    73  56  54 E10       30.03F                  
MIDDLETON      PTSUNNY   73  53  50 SE9       30.04F                  
WATERTOWN      FAIR      71  55  56 E9        30.05F                  
MONROE         LGT RAIN  71  56  59 E5        30.03F                  
JANESVILLE     CLOUDY    77  55  47 E12G17    30.03F                  
$$
 
WIZ051-052-058>065-066-070>072-252200-
SOUTHEAST WISCONSIN
  
CITY           SKY/WX    TMP DP  RH WIND       PRES   REMARKS
MILWAUKEE      PTSUNNY   73  58  59 SE12      30.08F                  
WAUKESHA       PTSUNNY   70  54  56 SE12      30.08F                  
MILWAUKEE/TIMM MOSUNNY   72  50  46 SE7G16    30.09F                  
RACINE         FAIR      72  56  57 E14       30.09S                  
KENOSHA        FAIR      74  57  55 E13       30.07F                  
FOND DU LAC    FAIR      74  55  51 SE15      30.07F                  
SHEBOYGAN      FAIR      70  57  63 SE8       30.10F                  
WEST BEND      FAIR      72  59  64 E10       30.08F                  
JUNEAU         FAIR      71  56  60 E10       30.07F                  
$$

LSZ147-162-252200-
LAKE SUPERIOR
  
STATION/POSITION TIME  TEMP    WIND        PRES    WAVE
                       AIR SEA DIR/SP/G            HT/PER
                 (UTC) (F)     (DEG/KT/KT) (MB)    (FT/S)
W MID LAKE BUOY  2050   65 65   40/  6/  6 1016.8F   1/ 4
DEVILS ISLAND    2000   72     160/ 10/ 13 1016.8F
SAXON HARBOR     2030   74     170/  6/ 13 1016.3F
$$
 
LMZ867-665-643>646-252200-
LAKE MICHIGAN
  
STATION/POSITION TIME  TEMP    WIND        PRES    WAVE
                       AIR SEA DIR/SP/G            HT/PER
                 (UTC) (F)     (DEG/KT/KT) (MB)    (FT/S)
S GREEN BAY BUOY 2030   75 70  130/ 12/ 16 1019.7F
N MID LAKE BUOY  2050   69 70   70/  6/  8 1020.4F   1/ 5
NORTHPORT PIER   2040   68      80/  4/  5 1020.0F
KEWAUNEE LAKESHO 2024   69     160/ 10/ 12 1019.4
SHEBOYGAN LAKESH 2100   69     140/ 12/ 12 1019.1F
PORT WASHINGTON  2030   71     130/ 11/ 13 1020.0F
ATWATER BUOY     2030   69 69  120/ 10/ 14 1019.0F   3/ 5
S MID LAKE BUOY  2050   70 72  100/  8/ 10 1018.5F   2/ 4
KENOSHA   LAKESH 2100   72     110/ 13/ 15 1017.6
$$

TC  - TEMPERATURE IN CELSIUS
VSB - VISIBILITY IN STATUTE MILES
WCI - WIND CHILL INDEX
HX  - HEAT INDEX